Location: Marse
(42.1502°N, 110.9866°W)
Time: 05:08:25
(UTC+00:00)

ITUPSAT 1 - Pass Details

Date: 07 July 2022
Orbit: 701 x 711 km, 98.6° (Epoch: 16 August)

Event Time Altitude Azimuth Distance (km) Brightness Sun altitude
Rises 05:31:30 0° 352° (N) 3,113 ? -19.8°
Reaches altitude 10° 05:35:24 10° 320° (NW) 2,190 ? -20.2°
Maximum altitude 05:36:52 11° 302° (WNW) 2,097 ? -20.3°
Drops below altitude 10° 05:38:20 10° 284° (WNW) 2,188 ? -20.4°
Sets 05:42:15 0° 251° (WSW) 3,103 ? -20.7°
